Precipitable_Water
0.29 0.24 0.19 0.20 0.23 0.23 0.23 0.23 0.24 0.28 0.32 0.32 0.32 0.31 0.35 0.39 0.40 0.39 0.42 0.43 0.52 0.64 0.81 0.96 1.06 1.11 1.13 1.15 1.11 1.02 0.98 0.96 0.94 0.88 0.84 0.80 0.74 0.74 0.77 0.80 0.77 0.73 0.74 0.75
0.29 0.24 0.29 0.30 0.25 0.22 0.20 0.19 0.22 0.25 0.31 0.33 0.34 0.32 0.34 0.45 0.46 0.46 0.44 0.45 0.54 0.73 0.85 0.96 1.06 1.10 1.09 1.08 1.04 0.98 0.97 1.00 0.96 0.90 0.85 0.81 0.77 0.77 0.78 0.74 0.69 0.67 0.66 0.68
0.27 0.28 0.33 0.31 0.29 0.25 0.22 0.21 0.23 0.24 0.35 0.38 0.36 0.33 0.35 0.39 0.42 0.50 0.51 0.57 0.69 0.74 0.84 0.94 1.02 1.06 1.10 1.08 1.01 1.05 1.05 0.94 0.91 0.88 0.87 0.84 0.83 0.80 0.71 0.66 0.59 0.61 0.62 0.62
0.29 0.33 0.33 0.30 0.27 0.28 0.26 0.32 0.31 0.30 0.31 0.27 0.36 0.23 0.31 0.40 0.43 0.52 0.57 0.61 0.73 0.83 0.94 0.99 1.04 1.07 1.04 0.99 1.17 1.07 0.97 0.93 0.93 0.90 0.84 0.78 0.71 0.65 0.67 0.67 0.66 0.66 0.64 0.59
0.29 0.33 0.34 0.30 0.31 0.34 0.30 0.36 0.32 0.30 0.29 0.29 0.30 0.29 0.35 0.46 0.51 0.62 0.70 0.70 0.84 0.92 0.99 1.02 1.06 1.06 1.11 1.05 0.94 0.95 0.98 0.98 0.96 0.96 0.91 0.86 0.79 0.76 0.72 0.64 0.66 0.64 0.62 0.59
0.39 0.45 0.40 0.40 0.38 0.36 0.36 0.31 0.32 0.34 0.29 0.22 0.35 0.40 0.41 0.51 0.60 0.70 0.83 0.78 0.87 0.95 1.00 1.07 1.14 1.11 0.97 0.93 0.94 0.99 0.98 0.93 0.98 0.96 0.91 0.86 0.82 0.75 0.70 0.64 0.62 0.61 0.59 0.61
0.39 0.41 0.45 0.46 0.39 0.43 0.40 0.32 0.29 0.29 0.30 0.30 0.45 0.48 0.48 0.61 0.71 0.75 0.84 0.91 0.94 1.04 1.04 1.02 0.97 0.93 0.94 0.92 0.93 0.93 0.91 0.93 0.96 0.97 0.92 0.88 0.84 0.74 0.68 0.69 0.66 0.59 0.57 0.64
0.35 0.29 0.47 0.52 0.46 0.37 0.39 0.39 0.30 0.25 0.28 0.31 0.45 0.39 0.49 0.59 0.64 0.67 0.74 0.90 0.95 0.97 0.97 0.92 0.89 0.87 0.87 0.89 0.90 0.93 0.94 0.84 0.86 0.85 0.83 0.80 0.77 0.76 0.75 0.73 0.68 0.62 0.63 0.72
0.36 0.33 0.43 0.48 0.51 0.46 0.41 0.32 0.43 0.35 0.36 0.32 0.39 0.50 0.60 0.68 0.65 0.66 0.68 0.69 0.71 0.75 0.78 0.78 0.77 0.77 0.81 0.82 0.81 0.80 0.78 0.79 0.82 0.82 0.80 0.80 0.83 0.80 0.71 0.66 0.66 0.66 0.73 0.77
0.47 0.33 0.38 0.44 0.50 0.50 0.47 0.47 0.33 0.39 0.29 0.26 0.35 0.43 0.47 0.56 0.57 0.58 0.58 0.62 0.65 0.68 0.69 0.70 0.71 0.71 0.72 0.74 0.73 0.74 0.78 0.79 0.82 0.83 0.83 0.82 0.76 0.71 0.66 0.69 0.67 0.73 0.77 0.84
0.47 0.40 0.34 0.40 0.45 0.46 0.49 0.47 0.53 0.52 0.44 0.33 0.30 0.39 0.57 0.59 0.62 0.61 0.64 0.65 0.63 0.63 0.64 0.67 0.66 0.64 0.64 0.67 0.69 0.72 0.74 0.77 0.77 0.71 0.66 0.67 0.67 0.65 0.70 0.75 0.75 0.74 0.81 0.79
0.51 0.41 0.29 0.34 0.46 0.54 0.54 0.49 0.50 0.39 0.38 0.42 0.40 0.39 0.59 0.58 0.58 0.57 0.57 0.61 0.65 0.65 0.64 0.63 0.60 0.61 0.59 0.59 0.61 0.63 0.67 0.60 0.56 0.59 0.65 0.69 0.72 0.74 0.73 0.73 0.75 0.82 0.75 0.76
0.42 0.39 0.29 0.28 0.47 0.55 0.49 0.53 0.59 0.51 0.47 0.38 0.35 0.38 0.62 0.63 0.63 0.68 0.67 0.63 0.64 0.66 0.63 0.60 0.59 0.55 0.52 0.55 0.55 0.50 0.46 0.51 0.63 0.71 0.71 0.74 0.73 0.74 0.72 0.75 0.78 0.77 0.76 0.75
0.51 0.36 0.27 0.24 0.29 0.44 0.44 0.49 0.57 0.53 0.42 0.38 0.39 0.46 0.59 0.61 0.63 0.63 0.63 0.65 0.66 0.64 0.60 0.61 0.55 0.54 0.55 0.52 0.47 0.46 0.52 0.65 0.69 0.73 0.73 0.72 0.72 0.71 0.76 0.75 0.74 0.74 0.74 0.71
0.54 0.37 0.43 0.43 0.45 0.45 0.46 0.46 0.48 0.45 0.45 0.40 0.41 0.47 0.61 0.63 0.60 0.62 0.64 0.65 0.62 0.59 0.56 0.51 0.55 0.56 0.50 0.43 0.47 0.54 0.63 0.69 0.72 0.72 0.70 0.69 0.73 0.72 0.70 0.71 0.70 0.70 0.69 0.67
0.59 0.41 0.44 0.36 0.42 0.47 0.44 0.50 0.50 0.44 0.43 0.42 0.48 0.49 0.62 0.62 0.64 0.61 0.62 0.61 0.55 0.46 0.49 0.53 0.56 0.48 0.44 0.49 0.56 0.64 0.66 0.69 0.70 0.67 0.67 0.68 0.67 0.70 0.68 0.66 0.68 0.69 0.67 0.67
0.42 0.42 0.38 0.30 0.40 0.41 0.35 0.44 0.48 0.47 0.50 0.49 0.43 0.53 0.58 0.58 0.58 0.56 0.55 0.51 0.47 0.47 0.51 0.55 0.49 0.47 0.52 0.60 0.67 0.68 0.68 0.69 0.68 0.68 0.67 0.65 0.66 0.64 0.65 0.66 0.68 0.68 0.71 0.70
0.46 0.46 0.44 0.36 0.38 0.27 0.48 0.57 0.55 0.52 0.56 0.59 0.58 0.59 0.60 0.59 0.60 0.60 0.57 0.50 0.46 0.49 0.52 0.51 0.49 0.54 0.65 0.70 0.72 0.69 0.68 0.62 0.60 0.59 0.60 0.60 0.64 0.63 0.66 0.67 0.69 0.71 0.72 0.72
0.61 0.55 0.45 0.39 0.38 0.42 0.46 0.57 0.54 0.53 0.56 0.65 0.58 0.57 0.59 0.59 0.59 0.52 0.53 0.54 0.51 0.53 0.54 0.53 0.56 0.68 0.70 0.71 0.69 0.63 0.59 0.59 0.59 0.60 0.58 0.58 0.59 0.60 0.62 0.67 0.69 0.71 0.70 0.71
0.64 0.62 0.52 0.44 0.38 0.33 0.56 0.70 0.76 0.68 0.50 0.70 0.62 0.59 0.56 0.48 0.30 0.40 0.52 0.54 0.56 0.57 0.55 0.54 0.69 0.71 0.71 0.67 0.61 0.58 0.57 0.57 0.56 0.58 0.60 0.61 0.59 0.62 0.63 0.65 0.68 0.72 0.71 0.70
0.57 0.55 0.50 0.48 0.44 0.52 0.70 0.75 0.76 0.48 0.53 0.65 0.63 0.55 0.49 0.42 0.46 0.52 0.56 0.56 0.57 0.57 0.56 0.67 0.71 0.69 0.61 0.54 0.57 0.55 0.58 0.60 0.64 0.67 0.60 0.54 0.64 0.64 0.64 0.65 0.68 0.66 0.67 0.67
0.52 0.53 0.49 0.47 0.43 0.42 0.78 0.74 0.56 0.62 0.66 0.63 0.57 0.53 0.47 0.50 0.51 0.50 0.52 0.54 0.60 0.58 0.66 0.72 0.66 0.53 0.52 0.55 0.54 0.55 0.56 0.64 0.65 0.63 0.62 0.61 0.66 0.65 0.64 0.61 0.57 0.54 0.57 0.54
0.49 0.57 0.48 0.46 0.44 0.59 0.61 0.58 0.64 0.62 0.56 0.56 0.52 0.50 0.52 0.48 0.45 0.48 0.51 0.57 0.63 0.70 0.69 0.67 0.48 0.45 0.47 0.47 0.52 0.53 0.61 0.64 0.66 0.63 0.65 0.66 0.68 0.67 0.67 0.61 0.53 0.51 0.52 0.49
0.58 0.64 0.51 0.50 0.56 0.60 0.61 0.64 0.65 0.62 0.60 0.54 0.53 0.52 0.46 0.39 0.46 0.49 0.58 0.64 0.68 0.68 0.58 0.46 0.46 0.49 0.53 0.63 0.69 0.73 0.72 0.70 0.64 0.64 0.65 0.66 0.67 0.67 0.67 0.64 0.60 0.55 0.53 0.53
0.55 0.56 0.47 0.51 0.58 0.61 0.62 0.63 0.65 0.58 0.54 0.50 0.48 0.42 0.43 0.45 0.48 0.58 0.64 0.68 0.63 0.45 0.44 0.51 0.54 0.58 0.65 0.67 0.67 0.71 0.64 0.65 0.62 0.64 0.66 0.66 0.67 0.69 0.65 0.63 0.59 0.58 0.62 0.65
0.54 0.48 0.43 0.42 0.51 0.54 0.57 0.61 0.61 0.50 0.50 0.47 0.41 0.43 0.47 0.50 0.57 0.64 0.67 0.56 0.41 0.43 0.51 0.56 0.59 0.62 0.65 0.63 0.63 0.64 0.61 0.60 0.61 0.61 0.64 0.67 0.67 0.65 0.62 0.60 0.60 0.69 0.71 0.74
Wind_Speed
8 6 8 11 12 14 15 13 13 10 4 10 15 15 15 17 17 16 16 16 15 17 17 17 16 16 16 18 19 20 20 22 23 25 26 29 31 34 35 38 42 44 44 46
11 10 13 10 8 10 12 13 14 11 12 11 10 14 16 15 20 20 19 18 14 16 16 16 17 18 19 20 21 21 22 24 25 27 29 31 33 36 39 43 44 46 47 47
10 10 6 9 11 12 13 12 11 11 7 11 14 17 18 19 19 21 17 14 13 16 16 16 17 18 20 22 22 22 24 26 28 29 31 35 37 40 42 44 45 45 46 47
8 6 8 11 13 12 10 10 11 12 11 12 12 18 15 19 20 16 16 13 12 14 14 15 16 18 19 21 21 24 28 29 30 31 34 37 38 40 42 45 47 47 49 50
9 10 9 10 9 10 12 12 14 14 17 16 17 15 18 15 14 12 15 14 12 12 14 14 16 17 19 21 25 27 28 30 31 32 35 37 39 42 43 46 47 48 51 53
11 11 10 11 12 12 14 15 17 16 15 14 10 11 18 17 18 17 20 16 11 10 11 12 15 18 20 24 25 25 27 29 32 35 39 42 42 45 45 46 48 51 52 48
11 12 6 8 12 11 12 10 11 11 8 10 9 10 11 7 6 4 5 7 4 7 10 12 15 19 20 23 24 28 30 32 37 41 42 42 43 44 47 49 50 51 47 42
8 10 9 9 10 10 13 11 9 10 10 12 9 9 9 6 3 3 4 4 6 9 13 15 19 21 24 27 28 31 35 39 39 40 40 42 44 46 48 49 49 44 40 37
10 13 18 17 13 9 12 11 11 11 13 10 5 9 11 14 11 9 7 8 10 12 15 17 21 24 25 27 29 32 36 37 37 39 43 45 46 48 49 47 43 39 36 31
14 16 14 14 12 14 13 12 10 10 9 10 9 8 8 5 7 7 8 11 13 16 17 19 20 23 25 28 31 33 35 38 40 43 45 47 48 47 46 42 38 34 30 26
14 12 14 14 10 13 12 11 9 11 8 10 11 11 11 11 12 14 15 15 16 18 18 19 22 25 28 30 33 36 39 42 45 46 47 46 44 43 40 35 29 26 24 22
14 15 14 15 16 12 9 11 13 11 14 12 11 14 12 10 11 11 13 15 16 17 19 22 25 28 31 34 37 41 44 46 47 46 44 41 39 35 31 24 22 20 19 18
14 11 11 12 10 9 10 16 14 11 11 11 11 12 12 13 14 17 16 16 17 19 23 25 28 32 33 37 40 45 47 47 43 39 36 34 30 24 21 19 18 17 17 17
10 11 12 12 16 17 16 13 17 13 13 16 15 13 14 15 15 14 16 17 20 22 25 28 33 34 37 41 44 46 44 38 33 30 27 23 20 18 16 17 17 16 17 17
10 11 13 15 18 19 20 19 17 15 16 13 16 13 15 14 13 15 18 21 23 26 29 32 34 37 41 43 42 40 33 27 26 23 21 18 17 17 17 16 16 16 16 15
14 15 16 16 18 19 20 17 18 16 16 11 5 8 10 12 14 17 19 22 25 27 30 32 35 40 41 41 36 30 24 22 21 19 18 18 17 17 17 15 15 14 15 14
17 17 17 17 17 17 15 14 13 8 11 10 7 10 14 15 16 19 21 23 26 28 31 34 38 40 38 33 27 22 22 19 18 18 18 18 17 17 16 15 15 14 14 14
15 15 15 16 14 11 10 10 8 5 9 9 9 13 14 16 17 21 22 25 27 29 32 36 38 36 30 25 21 19 19 18 18 18 18 16 16 16 17 15 13 14 14 13
13 12 13 11 11 14 15 12 10 9 11 13 13 15 17 19 19 22 25 27 28 30 34 36 34 28 23 19 18 18 18 19 18 18 17 17 17 15 16 14 12 12 12 12
12 11 10 12 12 12 11 12 13 12 12 15 16 17 18 20 21 23 25 26 29 32 34 32 26 20 18 18 18 18 19 19 18 17 16 16 16 13 13 12 12 12 12 13
12 13 13 13 13 10 15 14 16 10 12 16 14 17 19 20 20 22 26 29 32 34 31 23 18 17 17 18 18 18 17 17 16 16 16 15 13 13 12 11 11 13 13 12
11 11 10 12 11 13 13 10 10 11 13 15 17 19 19 21 23 25 28 31 32 27 20 16 15 16 18 17 15 15 16 16 15 15 14 14 11 11 11 10 12 12 12 12
9 9 11 10 11 11 12 9 10 11 15 17 17 18 20 22 25 27 29 28 23 18 14 14 14 16 15 14 15 15 16 16 17 15 13 12 11 9 9 10 11 12 12 12
9 9 8 9 8 8 7 10 11 12 15 15 16 18 21 24 25 26 24 20 15 12 12 13 14 14 14 16 17 16 16 19 18 14 12 10 9 8 8 9 10 12 13 12
10 8 8 6 8 9 11 11 12 14 14 16 16 19 22 23 24 22 18 12 11 11 12 12 14 15 17 16 17 16 16 15 15 13 9 7 7 5 6 8 10 11 11 12
10 10 10 11 10 9 10 12 12 12 14 15 17 19 21 21 19 15 11 10 10 11 12 14 16 16 17 17 15 15 14 14 13 11 9 8 8 7 7 8 8 10 11 13
Wind_Direction
280 265 263 266 266 270 280 289 294 303 249 232 251 264 256 259 261 262 262 263 249 244 248 252 260 267 275 282 289 293 292 292 295 299 302 305 307 308 309 311 311 310 308 308
281 254 272 298 287 296 295 289 286 278 255 260 269 278 279 265 265 264 261 262 248 237 246 253 262 269 277 283 288 291 293 292 295 300 303 305 306 308 309 311 311 310 309 308
284 280 305 305 299 292 288 294 288 286 256 258 270 280 279 279 271 258 256 262 239 236 243 253 264 273 280 284 288 288 292 295 295 299 301 303 305 309 309 310 311 311 311 309
297 290 305 302 293 294 292 302 299 290 289 276 285 284 292 303 294 255 254 255 237 233 246 258 267 280 284 289 286 291 296 296 297 300 302 303 306 309 310 311 311 311 311 310
276 312 318 314 315 305 278 302 300 287 283 289 294 286 287 311 298 287 272 251 231 239 252 266 274 283 286 289 293 294 298 299 298 301 305 307 306 310 310 311 312 312 312 311
293 291 290 298 307 306 299 296 294 290 283 283 273 291 286 296 277 263 269 258 231 254 267 271 279 287 289 296 297 296 299 302 301 303 305 306 306 310 311 312 313 313 313 313
316 319 281 309 312 308 323 302 306 306 303 285 276 288 290 312 355 321 265 235 280 274 286 291 296 298 299 302 302 300 302 301 304 303 306 307 310 311 312 312 314 314 315 315
322 315 326 314 309 310 306 294 284 294 294 291 297 285 282 302 320 342 345 283 289 291 291 297 300 298 298 299 301 301 302 304 305 304 306 308 309 310 311 312 313 313 315 315
300 293 303 309 290 307 302 300 286 288 290 300 271 290 296 290 290 281 290 293 301 302 304 302 301 303 304 305 307 309 307 307 307 306 306 307 308 309 310 312 312 312 314 314
302 302 297 286 299 293 294 287 302 297 300 296 294 285 280 278 304 308 308 301 299 301 306 306 311 312 311 311 311 312 311 310 308 308 308 307 308 308 309 310 311 313 313 312
310 298 299 295 293 297 304 295 299 291 282 280 291 275 264 267 283 287 294 298 303 305 306 307 311 313 315 316 315 315 314 311 309 309 309 309 309 309 310 310 312 315 316 315
299 292 291 286 291 285 289 295 283 280 285 285 279 285 280 280 289 293 295 297 302 306 309 311 314 315 314 314 314 314 313 311 309 309 309 310 310 311 313 314 315 319 325 327
301 294 301 306 296 306 299 296 290 285 285 281 284 277 290 292 292 296 298 302 307 312 312 313 316 316 316 316 316 316 315 313 312 312 313 313 314 316 317 318 319 320 324 325
302 293 281 278 282 291 291 285 292 281 281 281 273 286 293 294 285 293 299 305 307 310 313 315 315 315 317 317 317 318 318 318 318 320 323 325 325 325 325 324 322 322 323 324
293 295 296 296 296 294 293 295 294 285 282 279 275 275 269 286 294 300 302 305 308 310 315 315 315 317 318 318 318 321 321 323 326 329 331 334 335 331 329 326 326 325 326 328
299 291 294 295 298 299 300 298 286 295 291 283 284 290 279 288 299 308 308 308 310 314 315 315 317 318 319 319 320 323 326 329 332 337 336 336 335 335 334 333 333 333 333 333
291 294 296 289 299 301 298 289 296 308 323 299 289 291 298 301 305 304 304 309 314 315 316 317 319 320 320 322 324 326 328 331 334 334 333 334 335 337 339 336 335 335 337 336
283 292 291 289 301 297 287 323 322 324 318 318 310 303 304 307 303 309 310 313 317 318 319 319 321 322 323 324 326 329 330 331 330 332 333 334 335 335 336 335 335 337 337 339
275 283 293 291 286 285 292 299 299 296 298 303 306 304 307 307 301 315 315 318 319 320 321 321 323 323 325 328 329 329 329 329 328 329 330 331 332 333 338 342 342 345 348 350
279 274 280 294 293 294 303 305 297 290 285 299 304 309 311 311 308 308 315 318 319 320 321 322 323 326 329 329 329 329 328 329 329 332 333 334 337 336 341 344 346 344 347 345
276 282 273 283 281 285 305 304 296 279 290 304 308 311 315 315 314 314 319 321 321 320 320 322 326 328 328 330 330 330 334 337 336 335 334 334 337 341 339 341 341 342 342 348
284 287 286 295 291 283 293 304 306 287 300 307 310 312 315 315 318 320 320 321 322 324 325 328 329 331 332 331 333 338 342 341 341 340 341 343 340 344 348 353 350 348 348 348
287 284 287 288 283 282 285 294 297 302 308 312 314 316 317 319 321 322 322 323 328 330 332 334 335 335 341 347 345 339 339 341 338 333 334 339 344 348 352 355 360 0 357 355
289 294 294 291 296 298 295 309 311 313 316 318 318 320 321 322 324 326 327 328 333 338 340 342 345 347 347 343 340 344 340 336 333 327 325 330 340 350 359 4 5 6 7 10
275 283 284 287 294 303 311 311 310 316 319 320 323 324 327 328 330 330 333 341 346 350 350 351 350 348 345 346 345 343 347 353 355 352 347 348 355 11 21 17 11 14 23 29
283 281 283 283 289 292 300 309 314 320 321 323 324 327 331 332 334 340 350 355 3 359 358 355 352 354 349 348 350 351 353 354 358 10 24 38 42 44 25 16 26 39 49 52